Year,Month,Day,Hour,Minute,Value (Times are PST for temperature in C)
2016,08,12,00,00,18.10
2016,08,12,00,01,18.10
2016,08,12,00,02,18.10
2016,08,12,00,03,18.00
2016,08,12,00,04,18.00
2016,08,12,00,05,17.90
2016,08,12,00,06,17.90
2016,08,12,00,07,17.90
2016,08,12,00,08,17.90
2016,08,12,00,09,17.80
2016,08,12,00,10,17.80
2016,08,12,00,11,17.80
2016,08,12,00,12,17.80
2016,08,12,00,13,17.80
2016,08,12,00,14,17.70
2016,08,12,00,15,17.70
2016,08,12,00,16,17.70
2016,08,12,00,17,17.70
2016,08,12,00,18,17.70
2016,08,12,00,19,17.70
2016,08,12,00,20,17.60
2016,08,12,00,21,17.60
2016,08,12,00,22,17.60
2016,08,12,00,23,17.60
2016,08,12,00,24,17.60
2016,08,12,00,25,17.60
2016,08,12,00,26,17.60
2016,08,12,00,27,17.50
2016,08,12,00,28,17.50
2016,08,12,00,29,17.50
2016,08,12,00,30,17.50
2016,08,12,00,31,17.50
2016,08,12,00,32,17.40
2016,08,12,00,33,17.40
2016,08,12,00,34,17.40
2016,08,12,00,35,17.40
2016,08,12,00,36,17.30
2016,08,12,00,37,17.30
2016,08,12,00,38,17.30
2016,08,12,00,39,17.30
2016,08,12,00,40,17.30
2016,08,12,00,41,17.30
2016,08,12,00,42,17.30
2016,08,12,00,43,17.20
2016,08,12,00,44,17.20
2016,08,12,00,45,17.20
2016,08,12,00,46,17.20
2016,08,12,00,47,17.20
2016,08,12,00,48,17.20
2016,08,12,00,49,17.20
2016,08,12,00,50,17.20
2016,08,12,00,51,17.20
2016,08,12,00,52,17.20
2016,08,12,00,53,17.20
2016,08,12,00,54,17.30
2016,08,12,00,55,17.30
2016,08,12,00,56,17.30
2016,08,12,00,57,17.20
2016,08,12,00,58,17.20
2016,08,12,00,59,17.20
2016,08,12,01,00,17.20
2016,08,12,01,01,17.20
2016,08,12,01,02,17.20
2016,08,12,01,03,17.10
2016,08,12,01,04,17.10
2016,08,12,01,05,17.00
2016,08,12,01,06,16.90
2016,08,12,01,07,16.90
2016,08,12,01,08,16.90
2016,08,12,01,09,16.80
2016,08,12,01,10,16.80
2016,08,12,01,11,16.80
2016,08,12,01,12,16.80
2016,08,12,01,13,16.80
2016,08,12,01,14,16.80
2016,08,12,01,15,16.80
2016,08,12,01,16,16.80
2016,08,12,01,17,16.80
2016,08,12,01,18,16.80
2016,08,12,01,19,16.80
2016,08,12,01,20,16.80
2016,08,12,01,21,16.80
2016,08,12,01,22,16.80
2016,08,12,01,23,16.80
2016,08,12,01,24,16.80
2016,08,12,01,25,16.80
2016,08,12,01,26,16.80
2016,08,12,01,27,16.80
2016,08,12,01,28,16.80
2016,08,12,01,29,16.80
2016,08,12,01,30,16.80
2016,08,12,01,31,16.80
2016,08,12,01,32,16.80
2016,08,12,01,33,16.80
2016,08,12,01,34,16.80
2016,08,12,01,35,16.80
2016,08,12,01,36,16.70
2016,08,12,01,37,16.70
2016,08,12,01,38,16.70
2016,08,12,01,39,16.70
2016,08,12,01,40,16.60
2016,08,12,01,41,16.60
2016,08,12,01,42,16.60
2016,08,12,01,43,16.60
2016,08,12,01,44,16.60
2016,08,12,01,45,16.60
2016,08,12,01,46,16.60
2016,08,12,01,47,16.60
2016,08,12,01,48,16.60
2016,08,12,01,49,16.60
2016,08,12,01,50,16.60
2016,08,12,01,51,16.60
2016,08,12,01,52,16.60
2016,08,12,01,53,16.60
2016,08,12,01,54,16.60
2016,08,12,01,55,16.70
2016,08,12,01,56,16.70
2016,08,12,01,57,16.70
2016,08,12,01,58,16.70
2016,08,12,01,59,16.80
2016,08,12,02,00,16.80
2016,08,12,02,01,16.80
2016,08,12,02,02,16.80
2016,08,12,02,03,16.80
2016,08,12,02,04,16.80
2016,08,12,02,05,16.80
2016,08,12,02,06,16.80
2016,08,12,02,07,16.80
2016,08,12,02,08,16.80
2016,08,12,02,09,16.80
2016,08,12,02,10,16.70
2016,08,12,02,11,16.70
2016,08,12,02,12,16.70
2016,08,12,02,13,16.70
2016,08,12,02,14,16.70
2016,08,12,02,15,16.70
2016,08,12,02,16,16.70
2016,08,12,02,17,16.70
2016,08,12,02,18,16.60
2016,08,12,02,19,16.60
2016,08,12,02,20,16.60
2016,08,12,02,21,16.50
2016,08,12,02,22,16.50
2016,08,12,02,23,16.40
2016,08,12,02,24,16.40
2016,08,12,02,25,16.40
2016,08,12,02,26,16.30
2016,08,12,02,27,16.30
2016,08,12,02,28,16.30
2016,08,12,02,29,16.30
2016,08,12,02,30,16.30
2016,08,12,02,31,16.30
2016,08,12,02,32,16.30
2016,08,12,02,33,16.30
2016,08,12,02,34,16.30
2016,08,12,02,35,16.30
2016,08,12,02,36,16.30
2016,08,12,02,37,16.30
2016,08,12,02,38,16.30
2016,08,12,02,39,16.20
2016,08,12,02,40,16.20
2016,08,12,02,41,16.20
2016,08,12,02,42,16.20
2016,08,12,02,43,16.20
2016,08,12,02,44,16.20
2016,08,12,02,45,16.10
2016,08,12,02,46,16.10
2016,08,12,02,47,16.10
2016,08,12,02,48,16.10
2016,08,12,02,49,16.10
2016,08,12,02,50,16.10
2016,08,12,02,51,16.10
2016,08,12,02,52,16.00
2016,08,12,02,53,16.00
2016,08,12,02,54,16.00
2016,08,12,02,55,16.00
2016,08,12,02,56,16.00
2016,08,12,02,57,15.90
2016,08,12,02,58,15.90
2016,08,12,02,59,15.90
2016,08,12,03,00,15.90
2016,08,12,03,01,15.90
2016,08,12,03,02,15.90
2016,08,12,03,03,15.90
2016,08,12,03,04,15.90
2016,08,12,03,05,15.80
2016,08,12,03,06,15.80
2016,08,12,03,07,15.80
2016,08,12,03,08,15.80
2016,08,12,03,09,15.80
2016,08,12,03,10,15.70
2016,08,12,03,11,15.70
2016,08,12,03,12,15.70
2016,08,12,03,13,15.70
2016,08,12,03,14,15.70
2016,08,12,03,15,15.70
2016,08,12,03,16,15.70
2016,08,12,03,17,15.60
2016,08,12,03,18,15.60
2016,08,12,03,19,15.60
2016,08,12,03,20,15.60
2016,08,12,03,21,15.60
2016,08,12,03,22,15.60
2016,08,12,03,23,15.60
2016,08,12,03,24,15.60
2016,08,12,03,25,15.60
2016,08,12,03,26,15.60
2016,08,12,03,27,15.60
2016,08,12,03,28,15.50
2016,08,12,03,29,15.50
2016,08,12,03,30,15.50
2016,08,12,03,31,15.50
2016,08,12,03,32,15.50
2016,08,12,03,33,15.40
2016,08,12,03,34,15.40
2016,08,12,03,35,15.40
2016,08,12,03,36,15.40
2016,08,12,03,37,15.40
2016,08,12,03,38,15.40
2016,08,12,03,39,15.40
2016,08,12,03,40,15.40
2016,08,12,03,41,15.40
2016,08,12,03,42,15.40
2016,08,12,03,43,15.40
2016,08,12,03,44,15.30
2016,08,12,03,45,15.30
2016,08,12,03,46,15.30
2016,08,12,03,47,15.30
2016,08,12,03,48,15.30
2016,08,12,03,49,15.30
2016,08,12,03,50,15.30
2016,08,12,03,51,15.30
2016,08,12,03,52,15.30
2016,08,12,03,53,15.20
2016,08,12,03,54,15.20
2016,08,12,03,55,15.20
2016,08,12,03,56,15.20
2016,08,12,03,57,15.20
2016,08,12,03,58,15.20
2016,08,12,03,59,15.20
2016,08,12,04,00,15.20
2016,08,12,04,01,15.20
2016,08,12,04,02,15.20
2016,08,12,04,03,15.20
2016,08,12,04,04,15.20
2016,08,12,04,05,15.20
2016,08,12,04,06,15.20
2016,08,12,04,07,15.20
2016,08,12,04,08,15.20
2016,08,12,04,09,15.20
2016,08,12,04,10,15.20
2016,08,12,04,11,15.20
2016,08,12,04,12,15.20
2016,08,12,04,13,15.20
2016,08,12,04,14,15.20
2016,08,12,04,15,15.20
2016,08,12,04,16,15.20
2016,08,12,04,17,15.20
2016,08,12,04,18,15.20
2016,08,12,04,19,15.20
2016,08,12,04,20,15.20
2016,08,12,04,21,15.20
2016,08,12,04,22,15.20
2016,08,12,04,23,15.20
2016,08,12,04,24,15.20
2016,08,12,04,25,15.10
2016,08,12,04,26,15.10
2016,08,12,04,27,15.10
2016,08,12,04,28,15.10
2016,08,12,04,29,15.10
2016,08,12,04,30,15.10
2016,08,12,04,31,15.10
2016,08,12,04,32,15.00
2016,08,12,04,33,15.00
2016,08,12,04,34,15.00
2016,08,12,04,35,15.00
2016,08,12,04,36,14.90
2016,08,12,04,37,14.90
2016,08,12,04,38,14.90
2016,08,12,04,39,14.90
2016,08,12,04,40,14.90
2016,08,12,04,41,14.80
2016,08,12,04,42,14.80
2016,08,12,04,43,14.80
2016,08,12,04,44,14.80
2016,08,12,04,45,14.80
2016,08,12,04,46,14.80
2016,08,12,04,47,14.80
2016,08,12,04,48,14.80
2016,08,12,04,49,14.80
2016,08,12,04,50,14.80
2016,08,12,04,51,14.80
2016,08,12,04,52,14.70
2016,08,12,04,53,14.70
2016,08,12,04,54,14.70
2016,08,12,04,55,14.70
2016,08,12,04,56,14.70
2016,08,12,04,57,14.70
2016,08,12,04,58,14.60
2016,08,12,04,59,14.60
2016,08,12,05,00,14.60
2016,08,12,05,01,14.60
2016,08,12,05,02,14.60
2016,08,12,05,03,14.60
2016,08,12,05,04,14.60
2016,08,12,05,05,14.60
2016,08,12,05,06,14.60
2016,08,12,05,07,14.60
2016,08,12,05,08,14.60
2016,08,12,05,09,14.60
2016,08,12,05,10,14.60
2016,08,12,05,11,14.60
2016,08,12,05,12,14.60
2016,08,12,05,13,14.60
2016,08,12,05,14,14.60
2016,08,12,05,15,14.50
2016,08,12,05,16,14.50
2016,08,12,05,17,14.50
2016,08,12,05,18,14.40
2016,08,12,05,19,14.40
2016,08,12,05,20,14.40
2016,08,12,05,21,14.40
2016,08,12,05,22,14.40
2016,08,12,05,23,14.40
2016,08,12,05,24,14.40
2016,08,12,05,25,14.40
2016,08,12,05,26,14.40
2016,08,12,05,27,14.30
2016,08,12,05,28,14.30
2016,08,12,05,29,14.30
2016,08,12,05,30,14.30
2016,08,12,05,31,14.30
2016,08,12,05,32,14.30
2016,08,12,05,33,14.30
2016,08,12,05,34,14.30
2016,08,12,05,35,14.30
2016,08,12,05,36,14.30
2016,08,12,05,37,14.30
2016,08,12,05,38,14.30
2016,08,12,05,39,14.30
2016,08,12,05,40,14.30
2016,08,12,05,41,14.30
2016,08,12,05,42,14.30
2016,08,12,05,43,14.30
2016,08,12,05,44,14.30
2016,08,12,05,45,14.20
2016,08,12,05,46,14.20
2016,08,12,05,47,14.20
2016,08,12,05,48,14.20
2016,08,12,05,49,14.20
2016,08,12,05,50,14.20
2016,08,12,05,51,14.20
2016,08,12,05,52,14.20
2016,08,12,05,53,14.20
2016,08,12,05,54,14.20
2016,08,12,05,55,14.20
2016,08,12,05,56,14.20
2016,08,12,05,57,14.20
2016,08,12,05,58,14.30
2016,08,12,05,59,14.30
2016,08,12,06,00,14.20
2016,08,12,06,01,14.20
2016,08,12,06,02,14.20
2016,08,12,06,03,14.20
2016,08,12,06,04,14.20
2016,08,12,06,05,14.20
2016,08,12,06,06,14.20
2016,08,12,06,07,14.10
2016,08,12,06,08,14.10
2016,08,12,06,09,14.10
2016,08,12,06,10,14.10
2016,08,12,06,11,14.10
2016,08,12,06,12,14.20
2016,08,12,06,13,14.20
2016,08,12,06,14,14.20
2016,08,12,06,15,14.20
2016,08,12,06,16,14.20
2016,08,12,06,17,14.20
2016,08,12,06,18,14.30
2016,08,12,06,19,14.30
2016,08,12,06,20,14.30
2016,08,12,06,21,14.30
2016,08,12,06,22,14.30
2016,08,12,06,23,14.30
2016,08,12,06,24,14.30
2016,08,12,06,25,14.30
2016,08,12,06,26,14.30
2016,08,12,06,27,14.30
2016,08,12,06,28,14.30
2016,08,12,06,29,14.30
2016,08,12,06,30,14.30
2016,08,12,06,31,14.30
2016,08,12,06,32,14.30
2016,08,12,06,33,14.40
2016,08,12,06,34,14.40
2016,08,12,06,35,14.40
2016,08,12,06,36,14.40
2016,08,12,06,37,14.40
2016,08,12,06,38,14.40
2016,08,12,06,39,14.40
2016,08,12,06,40,14.40
2016,08,12,06,41,14.40
2016,08,12,06,42,14.40
2016,08,12,06,43,14.40
2016,08,12,06,44,14.40
2016,08,12,06,45,14.40
2016,08,12,06,46,14.40
2016,08,12,06,47,14.40
2016,08,12,06,48,14.40
2016,08,12,06,49,14.40
2016,08,12,06,50,14.50
2016,08,12,06,51,14.50
2016,08,12,06,52,14.50
2016,08,12,06,53,14.50
2016,08,12,06,54,14.50
2016,08,12,06,55,14.50
2016,08,12,06,56,14.50
2016,08,12,06,57,14.50
2016,08,12,06,58,14.60
2016,08,12,06,59,14.60
2016,08,12,07,00,14.60
2016,08,12,07,01,14.70
2016,08,12,07,02,14.70
2016,08,12,07,03,14.70
2016,08,12,07,04,14.80
2016,08,12,07,05,14.80
2016,08,12,07,06,14.80
2016,08,12,07,07,14.80
2016,08,12,07,08,14.80
2016,08,12,07,09,14.80
2016,08,12,07,10,14.80
2016,08,12,07,11,14.90
2016,08,12,07,12,14.90
2016,08,12,07,13,14.90
2016,08,12,07,14,15.00
2016,08,12,07,15,15.00
2016,08,12,07,16,15.10
2016,08,12,07,17,15.10
2016,08,12,07,18,15.20
2016,08,12,07,19,15.30
2016,08,12,07,20,15.40
2016,08,12,07,21,15.50
2016,08,12,07,22,15.60
2016,08,12,07,23,15.60
2016,08,12,07,24,15.70
2016,08,12,07,25,15.70
2016,08,12,07,26,15.80
2016,08,12,07,27,15.80
2016,08,12,07,28,15.90
2016,08,12,07,29,16.00
2016,08,12,07,30,16.10
2016,08,12,07,31,16.20
2016,08,12,07,32,16.30
2016,08,12,07,33,16.40
2016,08,12,07,34,16.50
2016,08,12,07,35,16.60
2016,08,12,07,36,16.70
2016,08,12,07,37,16.80
2016,08,12,07,38,16.90
2016,08,12,07,39,17.00
2016,08,12,07,40,17.10
2016,08,12,07,41,17.20
2016,08,12,07,42,17.30
2016,08,12,07,43,17.40
2016,08,12,07,44,17.40
2016,08,12,07,45,17.50
2016,08,12,07,46,17.60
2016,08,12,07,47,17.70
2016,08,12,07,48,17.70
2016,08,12,07,49,17.80
2016,08,12,07,50,17.80
2016,08,12,07,51,17.90
2016,08,12,07,52,17.90
2016,08,12,07,53,17.90
2016,08,12,07,54,18.00
2016,08,12,07,55,18.00
2016,08,12,07,56,18.10
2016,08,12,07,57,18.20
2016,08,12,07,58,18.20
2016,08,12,07,59,18.30
2016,08,12,08,00,18.40
2016,08,12,08,01,18.50
2016,08,12,08,02,18.60
2016,08,12,08,03,18.70
2016,08,12,08,04,18.80
2016,08,12,08,05,19.00
2016,08,12,08,06,19.10
2016,08,12,08,07,19.30
2016,08,12,08,08,19.40
2016,08,12,08,09,19.50
2016,08,12,08,10,19.70
2016,08,12,08,11,19.80
2016,08,12,08,12,19.90
2016,08,12,08,13,20.00
2016,08,12,08,14,20.10
2016,08,12,08,15,20.20
2016,08,12,08,16,20.20
2016,08,12,08,17,20.30
2016,08,12,08,18,20.30
2016,08,12,08,19,20.40
2016,08,12,08,20,20.40
2016,08,12,08,21,20.40
2016,08,12,08,22,20.50
2016,08,12,08,23,20.50
2016,08,12,08,24,20.60
2016,08,12,08,25,20.60
2016,08,12,08,26,20.70
2016,08,12,08,27,20.70
2016,08,12,08,28,20.70
2016,08,12,08,29,20.80
2016,08,12,08,30,20.80
2016,08,12,08,31,20.80
2016,08,12,08,32,20.80
2016,08,12,08,33,20.80
2016,08,12,08,34,20.80
2016,08,12,08,35,20.80
2016,08,12,08,36,20.90
2016,08,12,08,37,20.90
2016,08,12,08,38,20.90
2016,08,12,08,39,20.90
2016,08,12,08,40,20.90
2016,08,12,08,41,20.80
2016,08,12,08,42,20.80
2016,08,12,08,43,20.80
2016,08,12,08,44,20.80
2016,08,12,08,45,20.80
2016,08,12,08,46,20.80
2016,08,12,08,47,20.80
2016,08,12,08,48,20.80
2016,08,12,08,49,20.80
2016,08,12,08,50,20.80
2016,08,12,08,51,20.80
2016,08,12,08,52,20.80
2016,08,12,08,53,20.80
2016,08,12,08,54,20.80
2016,08,12,08,55,20.80
2016,08,12,08,56,20.80
2016,08,12,08,57,20.80
2016,08,12,08,58,20.80
2016,08,12,08,59,20.80
2016,08,12,09,00,20.80
2016,08,12,09,01,20.80
2016,08,12,09,02,20.80
2016,08,12,09,03,20.80
2016,08,12,09,04,20.80
2016,08,12,09,05,20.80
2016,08,12,09,06,20.90
2016,08,12,09,07,20.90
2016,08,12,09,08,20.90
2016,08,12,09,09,20.90
2016,08,12,09,10,21.00
2016,08,12,09,11,21.00
2016,08,12,09,12,21.00
2016,08,12,09,13,21.10
2016,08,12,09,14,21.10
2016,08,12,09,15,21.10
2016,08,12,09,16,21.10
2016,08,12,09,17,21.10
2016,08,12,09,18,21.10
2016,08,12,09,19,21.20
2016,08,12,09,20,21.20
2016,08,12,09,21,21.20
2016,08,12,09,22,21.30
2016,08,12,09,23,21.30
2016,08,12,09,24,21.30
2016,08,12,09,25,21.30
2016,08,12,09,26,21.40
2016,08,12,09,27,21.40
2016,08,12,09,28,21.40
2016,08,12,09,29,21.40
2016,08,12,09,30,21.50
2016,08,12,09,31,21.50
2016,08,12,09,32,21.60
2016,08,12,09,33,21.50
2016,08,12,09,34,21.50
2016,08,12,09,35,21.40
2016,08,12,09,36,21.40
2016,08,12,09,37,21.40
2016,08,12,09,38,21.40
2016,08,12,09,39,21.40
2016,08,12,09,40,21.30
2016,08,12,09,41,21.30
2016,08,12,09,42,21.30
2016,08,12,09,43,21.30
2016,08,12,09,44,21.40
2016,08,12,09,45,21.40
2016,08,12,09,46,21.40
2016,08,12,09,47,21.40
2016,08,12,09,48,21.40
2016,08,12,09,49,21.40
2016,08,12,09,50,21.40
2016,08,12,09,51,21.40
2016,08,12,09,52,21.40
2016,08,12,09,53,21.40
2016,08,12,09,54,21.50
2016,08,12,09,55,21.50
2016,08,12,09,56,21.50
2016,08,12,09,57,21.60
2016,08,12,09,58,21.60
2016,08,12,09,59,21.70
2016,08,12,10,00,21.70
2016,08,12,10,01,21.70
2016,08,12,10,02,21.70
2016,08,12,10,03,21.70
2016,08,12,10,04,21.80
2016,08,12,10,05,21.70
2016,08,12,10,06,21.70
2016,08,12,10,07,21.70
2016,08,12,10,08,21.70
2016,08,12,10,09,21.70
2016,08,12,10,10,21.70
2016,08,12,10,11,21.70
2016,08,12,10,12,21.70
2016,08,12,10,13,21.70
2016,08,12,10,14,21.70
2016,08,12,10,15,21.70
2016,08,12,10,16,21.70
2016,08,12,10,17,21.70
2016,08,12,10,18,21.70
2016,08,12,10,19,21.70
2016,08,12,10,20,21.70
2016,08,12,10,21,21.70
2016,08,12,10,22,21.70
2016,08,12,10,23,21.80
2016,08,12,10,24,21.90
2016,08,12,10,25,21.90
2016,08,12,10,26,21.90
2016,08,12,10,27,22.00
2016,08,12,10,28,22.00
2016,08,12,10,29,22.00
2016,08,12,10,30,22.00
2016,08,12,10,31,22.10
2016,08,12,10,32,22.10
2016,08,12,10,33,22.10
2016,08,12,10,34,22.10
2016,08,12,10,35,22.10
2016,08,12,10,36,22.00
2016,08,12,10,37,21.90
2016,08,12,10,38,21.80
2016,08,12,10,39,21.80
2016,08,12,10,40,21.70
2016,08,12,10,41,21.70
2016,08,12,10,42,21.70
2016,08,12,10,43,21.70
2016,08,12,10,44,21.70
2016,08,12,10,45,21.70
2016,08,12,10,46,21.80
2016,08,12,10,47,21.80
2016,08,12,10,48,21.80
2016,08,12,10,49,21.90
2016,08,12,10,50,21.90
2016,08,12,10,51,21.90
2016,08,12,10,52,21.90
2016,08,12,10,53,21.90
2016,08,12,10,54,22.00
2016,08,12,10,55,22.00
2016,08,12,10,56,22.00
2016,08,12,10,57,22.00
2016,08,12,10,58,22.10
2016,08,12,10,59,22.10
2016,08,12,11,00,22.10
2016,08,12,11,01,22.10
2016,08,12,11,02,22.20
2016,08,12,11,03,22.20
2016,08,12,11,04,22.30
2016,08,12,11,05,22.30
2016,08,12,11,06,22.40
2016,08,12,11,07,22.40
2016,08,12,11,08,22.50
2016,08,12,11,09,22.60
2016,08,12,11,10,22.70
2016,08,12,11,11,22.70
2016,08,12,11,12,22.70
2016,08,12,11,13,22.70
2016,08,12,11,14,22.60
2016,08,12,11,15,22.70
2016,08,12,11,16,22.70
2016,08,12,11,17,22.80
2016,08,12,11,18,22.90
2016,08,12,11,19,23.00
2016,08,12,11,20,23.10
2016,08,12,11,21,23.10
2016,08,12,11,22,23.10
2016,08,12,11,23,23.10
2016,08,12,11,24,23.10
2016,08,12,11,25,23.20
2016,08,12,11,26,23.10
2016,08,12,11,27,23.10
2016,08,12,11,28,23.20
2016,08,12,11,29,23.20
2016,08,12,11,30,23.30
2016,08,12,11,31,23.30
2016,08,12,11,32,23.30
2016,08,12,11,33,23.30
2016,08,12,11,34,23.30
2016,08,12,11,35,23.30
2016,08,12,11,36,23.30
2016,08,12,11,37,23.30
2016,08,12,11,38,23.30
2016,08,12,11,39,23.30
2016,08,12,11,40,23.30
2016,08,12,11,41,23.40
2016,08,12,11,42,23.40
2016,08,12,11,43,23.50
2016,08,12,11,44,23.50
2016,08,12,11,45,23.60
2016,08,12,11,46,23.70
2016,08,12,11,47,23.70
2016,08,12,11,48,23.70
2016,08,12,11,49,23.80
2016,08,12,11,50,23.80
2016,08,12,11,51,23.90
2016,08,12,11,52,23.90
2016,08,12,11,53,24.00
2016,08,12,11,54,24.10
2016,08,12,11,55,24.10
2016,08,12,11,56,24.10
2016,08,12,11,57,24.10
2016,08,12,11,58,24.10
2016,08,12,11,59,24.10
2016,08,12,12,00,24.10
2016,08,12,12,01,24.00
2016,08,12,12,02,24.10
2016,08,12,12,03,24.10
2016,08,12,12,04,24.10
2016,08,12,12,05,24.20
2016,08,12,12,06,24.20
2016,08,12,12,07,24.20
2016,08,12,12,08,24.20
2016,08,12,12,09,24.20
2016,08,12,12,10,24.20
2016,08,12,12,11,24.30
2016,08,12,12,12,24.30
2016,08,12,12,13,24.30
2016,08,12,12,14,24.30
2016,08,12,12,15,24.40
2016,08,12,12,16,24.40
2016,08,12,12,17,24.40
2016,08,12,12,18,24.40
2016,08,12,12,19,24.40
2016,08,12,12,20,24.30
2016,08,12,12,21,24.30
2016,08,12,12,22,24.30
2016,08,12,12,23,24.20
2016,08,12,12,24,24.20
2016,08,12,12,25,24.20
2016,08,12,12,26,24.30
2016,08,12,12,27,24.30
2016,08,12,12,28,24.30
2016,08,12,12,29,24.30
2016,08,12,12,30,24.30
2016,08,12,12,31,24.30
2016,08,12,12,32,24.30
2016,08,12,12,33,24.30
2016,08,12,12,34,24.30
2016,08,12,12,35,24.30
2016,08,12,12,36,24.40
2016,08,12,12,37,24.50
2016,08,12,12,38,24.50
2016,08,12,12,39,24.60
2016,08,12,12,40,24.50
2016,08,12,12,41,24.50
2016,08,12,12,42,24.50
2016,08,12,12,43,24.40
2016,08,12,12,44,24.40
2016,08,12,12,45,24.40
2016,08,12,12,46,24.40
2016,08,12,12,47,24.40
2016,08,12,12,48,24.50
2016,08,12,12,49,24.50
2016,08,12,12,50,24.60
2016,08,12,12,51,24.60
2016,08,12,12,52,24.70
2016,08,12,12,53,24.70
2016,08,12,12,54,24.80
2016,08,12,12,55,24.90
2016,08,12,12,56,25.00
2016,08,12,12,57,25.10
2016,08,12,12,58,25.20
2016,08,12,12,59,25.30
2016,08,12,13,00,25.30
2016,08,12,13,01,25.30
2016,08,12,13,02,25.40
2016,08,12,13,03,25.40
2016,08,12,13,04,25.40
2016,08,12,13,05,25.40
2016,08,12,13,06,25.40
2016,08,12,13,07,25.40
2016,08,12,13,08,25.40
2016,08,12,13,09,25.40
2016,08,12,13,10,25.50
2016,08,12,13,11,25.50
2016,08,12,13,12,25.60
2016,08,12,13,13,25.60
2016,08,12,13,14,25.60
2016,08,12,13,15,25.60
2016,08,12,13,16,25.50
2016,08,12,13,17,25.40
2016,08,12,13,18,25.30
2016,08,12,13,19,25.30
2016,08,12,13,20,25.30
2016,08,12,13,21,25.20
2016,08,12,13,22,25.20
2016,08,12,13,23,25.20
2016,08,12,13,24,25.20
2016,08,12,13,25,25.20
2016,08,12,13,26,25.20
2016,08,12,13,27,25.20
2016,08,12,13,28,25.30
2016,08,12,13,29,25.30
2016,08,12,13,30,25.30
2016,08,12,13,31,25.30
2016,08,12,13,32,25.30
2016,08,12,13,33,25.30
2016,08,12,13,34,25.30
2016,08,12,13,35,25.40
2016,08,12,13,36,25.40
2016,08,12,13,37,25.40
2016,08,12,13,38,25.40
2016,08,12,13,39,25.40
2016,08,12,13,40,25.40
2016,08,12,13,41,25.40
2016,08,12,13,42,25.40
2016,08,12,13,43,25.40
2016,08,12,13,44,25.40
2016,08,12,13,45,25.40
2016,08,12,13,46,25.40
2016,08,12,13,47,25.50
2016,08,12,13,48,25.50
2016,08,12,13,49,25.50
2016,08,12,13,50,25.50
2016,08,12,13,51,25.60
2016,08,12,13,52,25.60
2016,08,12,13,53,25.70
2016,08,12,13,54,25.70
2016,08,12,13,55,25.80
2016,08,12,13,56,25.90
2016,08,12,13,57,26.00
2016,08,12,13,58,26.10
2016,08,12,13,59,26.10
2016,08,12,14,00,26.10
2016,08,12,14,01,26.10
2016,08,12,14,02,26.00
2016,08,12,14,03,25.90
2016,08,12,14,04,25.90
2016,08,12,14,05,25.80
2016,08,12,14,06,25.80
2016,08,12,14,07,25.80
2016,08,12,14,08,25.90
2016,08,12,14,09,25.90
2016,08,12,14,10,25.90
2016,08,12,14,11,25.90
2016,08,12,14,12,25.90
2016,08,12,14,13,25.90
2016,08,12,14,14,25.90
2016,08,12,14,15,25.90
2016,08,12,14,16,26.00
2016,08,12,14,17,26.00
2016,08,12,14,18,26.10
2016,08,12,14,19,26.20
2016,08,12,14,20,26.20
2016,08,12,14,21,26.30
2016,08,12,14,22,26.40
2016,08,12,14,23,26.50
2016,08,12,14,24,26.60
2016,08,12,14,25,26.60
2016,08,12,14,26,26.60
2016,08,12,14,27,26.70
2016,08,12,14,28,26.70
2016,08,12,14,29,26.70
2016,08,12,14,30,26.60
2016,08,12,14,31,26.50
2016,08,12,14,32,26.40
2016,08,12,14,33,26.40
2016,08,12,14,34,26.30
2016,08,12,14,35,26.30
2016,08,12,14,36,26.20
2016,08,12,14,37,26.10
2016,08,12,14,38,26.10
2016,08,12,14,39,26.20
2016,08,12,14,40,26.20
2016,08,12,14,41,26.20
2016,08,12,14,42,26.20
2016,08,12,14,43,26.20
2016,08,12,14,44,26.20
2016,08,12,14,45,26.30
2016,08,12,14,46,26.30
2016,08,12,14,47,26.40
2016,08,12,14,48,26.60
2016,08,12,14,49,26.70
2016,08,12,14,50,26.80
2016,08,12,14,51,26.80
2016,08,12,14,52,26.80
2016,08,12,14,53,26.90
2016,08,12,14,54,26.90
2016,08,12,14,55,26.80
2016,08,12,14,56,26.80
2016,08,12,14,57,26.70
2016,08,12,14,58,26.70
2016,08,12,14,59,26.70
2016,08,12,15,00,26.70
2016,08,12,15,01,26.70
2016,08,12,15,02,26.70
2016,08,12,15,03,26.70
2016,08,12,15,04,26.70
2016,08,12,15,05,26.60
2016,08,12,15,06,26.60
2016,08,12,15,07,26.50
2016,08,12,15,08,26.50
2016,08,12,15,09,26.50
2016,08,12,15,10,26.60
2016,08,12,15,11,26.60
2016,08,12,15,12,26.50
2016,08,12,15,13,26.50
2016,08,12,15,14,26.40
2016,08,12,15,15,26.40
2016,08,12,15,16,26.40
2016,08,12,15,17,26.30
2016,08,12,15,18,26.30
2016,08,12,15,19,26.30
2016,08,12,15,20,26.40
2016,08,12,15,21,26.40
2016,08,12,15,22,26.40
2016,08,12,15,23,26.50
2016,08,12,15,24,26.60
2016,08,12,15,25,26.60
2016,08,12,15,26,26.70
2016,08,12,15,27,26.70
2016,08,12,15,28,26.70
2016,08,12,15,29,26.80
2016,08,12,15,30,26.80
2016,08,12,15,31,26.80
2016,08,12,15,32,26.90
2016,08,12,15,33,27.00
2016,08,12,15,34,27.00
2016,08,12,15,35,27.10
2016,08,12,15,36,27.00
2016,08,12,15,37,26.90
2016,08,12,15,38,26.90
2016,08,12,15,39,26.80
2016,08,12,15,40,26.80
2016,08,12,15,41,26.80
2016,08,12,15,42,26.80
2016,08,12,15,43,26.90
2016,08,12,15,44,26.90
2016,08,12,15,45,27.00
2016,08,12,15,46,27.00
2016,08,12,15,47,27.10
2016,08,12,15,48,27.10
2016,08,12,15,49,27.10
2016,08,12,15,50,27.10
2016,08,12,15,51,27.10
2016,08,12,15,52,27.20
2016,08,12,15,53,27.20
2016,08,12,15,54,27.30
2016,08,12,15,55,27.30
2016,08,12,15,56,27.40
2016,08,12,15,57,27.50
2016,08,12,15,58,27.60
2016,08,12,15,59,27.60
2016,08,12,16,00,27.70
2016,08,12,16,01,27.70
2016,08,12,16,02,27.80
2016,08,12,16,03,27.80
2016,08,12,16,04,27.80
2016,08,12,16,05,27.80
2016,08,12,16,06,27.80
2016,08,12,16,07,27.90
2016,08,12,16,08,27.90
2016,08,12,16,09,28.00
2016,08,12,16,10,28.10
2016,08,12,16,11,28.10
2016,08,12,16,12,28.20
2016,08,12,16,13,28.10
2016,08,12,16,14,28.10
2016,08,12,16,15,28.00
2016,08,12,16,16,27.90
2016,08,12,16,17,27.90
2016,08,12,16,18,27.90
2016,08,12,16,19,27.90
2016,08,12,16,20,27.90
2016,08,12,16,21,27.90
2016,08,12,16,22,27.90
2016,08,12,16,23,27.90
2016,08,12,16,24,27.80
2016,08,12,16,25,27.90
2016,08,12,16,26,27.90
2016,08,12,16,27,27.90
2016,08,12,16,28,27.90
2016,08,12,16,29,27.90
2016,08,12,16,30,28.00
2016,08,12,16,31,28.10
2016,08,12,16,32,28.10
2016,08,12,16,33,28.20
2016,08,12,16,34,28.20
2016,08,12,16,35,28.30
2016,08,12,16,36,28.20
2016,08,12,16,37,28.20
2016,08,12,16,38,28.20
2016,08,12,16,39,28.20
2016,08,12,16,40,28.20
2016,08,12,16,41,28.20
2016,08,12,16,42,28.20
2016,08,12,16,43,28.20
2016,08,12,16,44,28.20
2016,08,12,16,45,28.20
2016,08,12,16,46,28.10
2016,08,12,16,47,28.00
2016,08,12,16,48,28.00
2016,08,12,16,49,28.00
2016,08,12,16,50,28.00
2016,08,12,16,51,28.00
2016,08,12,16,52,28.10
2016,08,12,16,53,28.10
2016,08,12,16,54,28.20
2016,08,12,16,55,28.20
2016,08,12,16,56,28.20
2016,08,12,16,57,28.30
2016,08,12,16,58,28.30
2016,08,12,16,59,28.20
2016,08,12,17,00,28.20
2016,08,12,17,01,28.20
2016,08,12,17,02,28.20
2016,08,12,17,03,28.30
2016,08,12,17,04,28.40
2016,08,12,17,05,28.60
2016,08,12,17,06,28.80
2016,08,12,17,07,29.00
2016,08,12,17,08,29.20
2016,08,12,17,09,29.30
2016,08,12,17,10,29.40
2016,08,12,17,11,29.50
2016,08,12,17,12,29.50
2016,08,12,17,13,29.50
2016,08,12,17,14,29.40
2016,08,12,17,15,29.30
2016,08,12,17,16,29.30
2016,08,12,17,17,29.20
2016,08,12,17,18,29.10
2016,08,12,17,19,29.10